[[{"header":{"parameterUnit":"m.s-1","parameterCategory":1,"la1":30.2991,"la2":30.254,"lo1":-89.0895,"lo2":-89.0444,"dy":0.0017,"dx":0.0017,"nx":28,"ny":28,"refTime":"2025-08-15T03:00:00:Z","depth":0,"parameterNumber":2,"parameterNumberName":"U-component_of_WINDS"},"data":[0,0,0,0,0,0,0,0,0,0,0,0,0,0,0,0,0,0,0,0,0,0,0,0,0,0,0,0,0,0,0,0,0,0,0,0,0,0,0,0,0,0,0,0,0,0,0,0,0,0,0,0,0,0,0,0,0,0,1.2891,1.2892,0,1.3036,1.3038,1.3039,1.309,1.3089,1.3089,1.3088,1.3238,1.3242,1.3247,0,0,0,0,0,0,0,0,0,0,0,0,0,1.2657,1.2661,1.289,1.2892,1.2894,1.3036,1.3038,1.304,1.309,1.3089,1.3089,1.3088,1.3236,1.3242,1.3247,0,0,0,0,0,0,0,0,0,0,0,0,0,1.2776,1.2662,1.289,1.2936,1.2942,1.3035,1.3038,1.304,1.309,1.3089,1.3089,1.3088,1.3235,1.3241,1.3248,1.3306,0,0,1.3268,1.3271,0,0,0,0,0,0,0,0,1.2769,1.2785,1.2928,1.2933,1.294,1.3044,1.301,1.313,1.309,1.3034,1.3088,1.3087,1.3174,1.3186,1.3215,1.3313,1.332,1.3269,1.3273,1.3276,1.3278,0,0,0,0,0,0,0,1.2761,1.2779,1.2948,1.293,1.2937,1.295,1.2966,1.3033,1.3107,1.3039,1.3043,1.3059,1.3177,1.3208,1.3219,1.3322,1.3269,1.3275,1.3279,1.3282,1.3477,1.3478,0,0,0,0,0,0,1.2745,1.2771,1.2944,1.2953,1.2851,1.2955,1.2973,1.3011,1.3106,1.312,1.306,1.3061,1.3197,1.3211,1.3224,1.3299,1.3276,1.3282,1.3286,1.3476,1.3477,1.3478,0,0,0,0,0,0,1.274,1.276,1.2938,1.2863,1.2887,1.296,1.3003,1.3015,1.3046,1.3122,1.3136,1.3078,1.3197,1.3215,1.3286,1.3305,1.3285,1.3292,1.3474,1.3476,1.3478,1.3449,0,0,0,0,0,0,1.2733,1.2758,1.278,1.2863,1.2891,1.2996,1.3004,1.3018,1.3057,1.306,1.3143,1.3156,1.3198,1.3275,1.3292,1.3314,1.3297,1.3473,1.3475,1.3477,1.3449,1.345,1.345,0,0,0,0,0,1.2724,1.2766,1.2781,1.2801,1.292,1.2997,1.3013,1.306,1.3059,1.3082,1.3132,1.3153,1.33,1.3282,1.3302,1.3326,1.3472,1.3474,1.3477,1.3448,1.3449,1.345,0,0,0,0,0,0,1.2683,1.2778,1.2795,1.2865,1.2923,1.3005,1.3036,1.306,1.3119,1.3119,1.3176,1.3194,1.326,1.3301,1.3279,1.3388,1.3387,1.3394,1.3359,1.3361,1.3362,1.335,1.3302,0,0,0,0,0,1.2682,1.2736,1.2817,1.2871,1.2899,1.2962,1.2998,1.3029,1.3091,1.3116,1.317,1.3229,1.3289,1.3327,1.3387,1.3455,1.3474,1.3481,1.3482,1.3483,1.3487,1.3527,1.3531,1.3486,1.3486,1.3486,0,0,1.2681,1.2739,1.277,1.2864,1.2912,1.2967,1.2983,1.304,1.3082,1.3125,1.3195,1.3237,1.3307,1.3377,1.3411,1.3412,1.3504,1.3486,1.3486,1.349,1.353,1.3534,1.3538,1.3488,1.3488,1.3488,0,0,1.2706,1.2756,1.2807,1.2855,1.2928,1.2971,1.2983,1.3062,1.3092,1.3163,1.3197,1.3248,1.3349,1.3398,1.3436,1.3481,1.3504,1.3499,1.3504,1.3542,1.3545,1.3548,1.3565,1.357,1.3504,1.3504,1.3504,0,1.2695,1.2779,1.283,1.2886,1.2926,1.2968,1.302,1.3065,1.3153,1.318,1.3181,1.331,1.3361,1.3443,1.3454,1.3483,1.3499,1.3489,1.354,1.3544,1.3548,1.3564,1.357,1.3503,1.3503,1.3503,1.3503,0,1.2762,1.282,1.2853,1.2937,1.2982,1.3035,1.3094,1.3133,1.3161,1.3204,1.3277,1.3338,1.3411,1.3433,1.3461,1.352,1.3519,1.3529,1.353,1.3551,1.3567,1.3573,1.3501,1.3502,1.3502,1.3502,0,0,1.2764,1.2877,1.2888,1.2927,1.3011,1.3057,1.3114,1.3185,1.3217,1.3277,1.3326,1.3412,1.3422,1.3465,1.35,1.3533,1.3565,1.354,1.3543,1.3542,1.3634,1.3624,1.363,1.3581,1.3582,1.3584,1.3627,0,1.28,1.2902,1.295,1.303,1.3085,1.3126,1.3175,1.3232,1.3274,1.3327,1.3373,1.3433,1.3442,1.3469,1.3504,1.3554,1.3584,1.3551,1.3627,1.3629,1.3607,1.3639,1.3629,1.3667,1.3634,1.3635,1.3636,0,1.2855,1.2915,1.3001,1.308,1.3105,1.3148,1.3218,1.3267,1.3334,1.3362,1.341,1.3444,1.3505,1.3502,1.3587,1.3564,1.3598,1.3627,1.363,1.3638,1.3633,1.3647,1.3681,1.3686,1.3646,1.3646,1.3645,0,1.2847,1.295,1.3015,1.3048,1.3141,1.3171,1.3211,1.3276,1.3316,1.3378,1.3404,1.3471,1.3508,1.356,1.3611,1.3604,1.3691,1.3692,1.3716,1.3715,1.3732,1.373,1.377,1.3755,1.3754,1.3754,1.3754,0,1.2882,1.2933,1.3013,1.3053,1.3111,1.3167,1.3223,1.3267,1.3325,1.3374,1.3414,1.346,1.3525,1.3578,1.3619,1.3683,1.37,1.3724,1.3734,1.372,1.3717,1.3742,1.3741,1.3756,1.3756,1.3755,1.3755,0,1.2883,1.2938,1.3012,1.3095,1.3117,1.3156,1.3228,1.3268,1.3312,1.3374,1.3392,1.3461,1.3527,1.3583,1.367,1.3697,1.3763,1.3776,1.3741,1.3746,1.3766,1.3763,1.3824,1.3835,1.3812,1.3812,1.3812,0,1.29,1.2941,1.3028,1.3064,1.3104,1.3162,1.3203,1.3259,1.33,1.338,1.3411,1.3479,1.3537,1.364,1.3698,1.3765,1.3779,1.3796,1.3789,1.3774,1.3778,1.3775,1.3779,1.3795,1.3795,1.3795,1.3795,0,1.2926,1.2952,1.301,1.3078,1.3126,1.3183,1.324,1.3267,1.3334,1.3379,1.3446,1.3491,1.358,1.3647,1.372,1.3763,1.379,1.3797,1.3806,1.3792,1.3769,1.3781,1.3741,1.3795,1.3795,1.3795,1.3795,1.3795,1.2936,1.2974,1.3042,1.3105,1.3154,1.3207,1.3249,1.3299,1.3357,1.3433,1.3463,1.3532,1.3599,1.37,1.3742,1.3797,1.3801,1.3814,1.3817,1.3819,1.3817,1.3761,1.3811,1.3811,1.3811,1.3811,1.3811,0,1.2964,1.301,1.3067,1.3147,1.3197,1.3219,1.3284,1.3324,1.3384,1.3444,1.35,1.3578,1.3644,1.3708,1.3778,1.381,1.3824,1.3826,1.3824,1.3833,1.381,1.3795,1.3813,1.3813,1.3813,1.3813,1.3813,1.3813,1.2984,1.3049,1.3083,1.3174,1.322,1.3288,1.3323,1.3372,1.342,1.3505,1.356,1.3602,1.3663,1.3738,1.38,1.3817,1.3841,1.3839,1.3859,1.3836,1.3835,1.3834,1.382,1.3844,1.3844,1.3878,1.3879,1.3879]},{"header":{"parameterUnit":"m.s-1","parameterCategory":1,"la1":30.2991,"la2":30.254,"lo1":-89.0895,"lo2":-89.0444,"dy":0.0017,"dx":0.0017,"nx":28,"ny":28,"refTime":"2025-08-15T03:00:00:Z","depth":0,"parameterNumber":3,"parameterNumberName":"V-component_of_WINDS"},"data":[0,0,0,0,0,0,0,0,0,0,0,0,0,0,0,0,0,0,0,0,0,0,0,0,0,0,0,0,0,0,0,0,0,0,0,0,0,0,0,0,0,0,0,0,0,0,0,0,0,0,0,0,0,0,0,0,0,0,2.7216,2.7216,0,2.7139,2.7138,2.7138,2.7081,2.7081,2.708,2.708,2.6995,2.6993,2.6991,0,0,0,0,0,0,0,0,0,0,0,0,0,2.7309,2.7308,2.7217,2.7216,2.7215,2.714,2.7138,2.7137,2.7081,2.7081,2.708,2.708,2.6995,2.6993,2.6991,0,0,0,0,0,0,0,0,0,0,0,0,0,2.7254,2.7308,2.7217,2.7178,2.7174,2.714,2.7138,2.7137,2.7081,2.7081,2.708,2.7079,2.6996,2.6993,2.6991,2.6987,0,0,2.6982,2.6981,0,0,0,0,0,0,0,0,2.7257,2.7251,2.7184,2.718,2.7176,2.7119,2.714,2.7087,2.7082,2.7116,2.708,2.7079,2.7036,2.703,2.7017,2.6983,2.698,2.6982,2.698,2.6979,2.6978,0,0,0,0,0,0,0,2.7261,2.7254,2.7186,2.7184,2.7178,2.7162,2.7154,2.7129,2.7081,2.7113,2.7109,2.7101,2.7034,2.702,2.7015,2.6978,2.6982,2.6979,2.6978,2.6977,2.6937,2.6937,0,0,0,0,0,0,2.7272,2.7257,2.7188,2.7183,2.7216,2.7161,2.7152,2.7138,2.7081,2.7072,2.7102,2.7099,2.7025,2.7018,2.7011,2.7003,2.6979,2.6976,2.6975,2.6936,2.6937,2.6937,0,0,0,0,0,0,2.7274,2.7267,2.7191,2.7219,2.7209,2.716,2.7146,2.7137,2.7123,2.7072,2.7063,2.7097,2.7024,2.7015,2.6994,2.6999,2.6975,2.6973,2.6935,2.6936,2.6937,2.6987,0,0,0,0,0,0,2.7277,2.7268,2.7267,2.722,2.7207,2.7177,2.7146,2.7136,2.7119,2.7114,2.7065,2.7056,2.7023,2.6998,2.6991,2.6995,2.697,2.6934,2.6936,2.6937,2.6985,2.699,2.6994,0,0,0,0,0,2.7281,2.7283,2.7268,2.726,2.7206,2.7178,2.717,2.7134,2.712,2.7118,2.7085,2.7058,2.7,2.6997,2.6988,2.6991,2.6934,2.6935,2.6937,2.6983,2.6989,2.6994,0,0,0,0,0,0,2.7331,2.7276,2.7258,2.7246,2.7217,2.7168,2.7165,2.7141,2.7114,2.711,2.7064,2.7053,2.7036,2.7011,2.7009,2.6984,2.6963,2.6963,2.7001,2.7007,2.7011,2.7017,2.6968,0,0,0,0,0,2.7341,2.7324,2.7277,2.727,2.7257,2.7214,2.72,2.7174,2.7141,2.7128,2.7094,2.7062,2.7036,2.702,2.6993,2.6981,2.6968,2.6979,2.6983,2.6987,2.6987,2.6978,2.6981,2.6942,2.6942,2.6942,0,0,2.736,2.7329,2.7321,2.728,2.7254,2.7236,2.7204,2.7186,2.7171,2.7125,2.7103,2.7077,2.7037,2.702,2.7011,2.6999,2.6996,2.6989,2.6993,2.699,2.6979,2.6983,2.6987,2.6943,2.6942,2.6942,0,0,2.7387,2.7362,2.7354,2.7329,2.7292,2.7263,2.7262,2.7216,2.7198,2.7176,2.714,2.7121,2.7078,2.7051,2.7032,2.7049,2.7022,2.7041,2.7064,2.7056,2.7059,2.7061,2.7066,2.7069,2.7041,2.7041,2.7041,0,2.7416,2.7389,2.7352,2.7337,2.7319,2.7278,2.7268,2.7246,2.7201,2.7189,2.7176,2.7122,2.7092,2.7068,2.7072,2.7058,2.7053,2.7046,2.7062,2.7064,2.7065,2.707,2.7072,2.7044,2.7044,2.7043,2.7043,0,2.7425,2.7407,2.7405,2.7365,2.7347,2.7334,2.7294,2.7279,2.7255,2.7227,2.7204,2.7168,2.7133,2.7125,2.71,2.7097,2.7091,2.7071,2.7049,2.7072,2.7076,2.7077,2.7048,2.7047,2.7046,2.7045,0,0,2.7481,2.7421,2.7421,2.7402,2.7358,2.7342,2.7327,2.7295,2.7283,2.7253,2.7238,2.7203,2.7185,2.7163,2.7135,2.7127,2.7141,2.7107,2.7106,2.7115,2.7134,2.7149,2.7152,2.7124,2.7124,2.7124,2.7137,0,2.75,2.7473,2.7439,2.7423,2.7405,2.7366,2.7352,2.7323,2.7296,2.7275,2.7244,2.722,2.7198,2.7184,2.7175,2.7142,2.7145,2.714,2.7107,2.7106,2.7118,2.7153,2.7169,2.7184,2.7138,2.7138,2.7138,0,2.7518,2.7493,2.7476,2.7433,2.7424,2.7413,2.7381,2.7362,2.7327,2.7308,2.7284,2.7254,2.7234,2.7215,2.7186,2.7184,2.7168,2.7149,2.7149,2.7144,2.7124,2.7148,2.7187,2.7189,2.714,2.714,2.714,0,2.756,2.7521,2.7505,2.749,2.744,2.7433,2.7412,2.7376,2.7359,2.733,2.7318,2.7287,2.7269,2.7244,2.7206,2.7196,2.718,2.7158,2.7162,2.7163,2.716,2.7161,2.7196,2.7151,2.7151,2.7151,2.7151,0,2.7584,2.7575,2.7523,2.7514,2.7502,2.7462,2.745,2.7425,2.7393,2.7377,2.734,2.7324,2.7275,2.7253,2.7223,2.7202,2.7195,2.7177,2.7169,2.718,2.7183,2.7169,2.7167,2.7152,2.7152,2.7151,2.7151,0,2.7628,2.7594,2.7574,2.7529,2.7517,2.751,2.747,2.7458,2.743,2.7409,2.7401,2.7356,2.7328,2.7288,2.7247,2.7227,2.721,2.7198,2.7223,2.7218,2.7224,2.7224,2.7252,2.7253,2.7208,2.7209,2.7209,0,2.7646,2.7638,2.7593,2.758,2.756,2.754,2.7523,2.7483,2.7466,2.7426,2.7418,2.7388,2.7362,2.7319,2.7281,2.7249,2.7235,2.7247,2.723,2.7241,2.7234,2.7235,2.7234,2.7251,2.7252,2.7252,2.7253,0,2.768,2.7664,2.7642,2.7614,2.7595,2.7571,2.7544,2.7535,2.7489,2.7472,2.7444,2.7424,2.7384,2.7354,2.7317,2.7292,2.7264,2.7259,2.7258,2.7269,2.7284,2.7275,2.7234,2.7258,2.7257,2.7257,2.7257,2.7256,2.7711,2.7702,2.7669,2.7646,2.7622,2.7598,2.7585,2.7556,2.7533,2.7498,2.7476,2.7449,2.7413,2.7361,2.7338,2.7315,2.7303,2.7302,2.7301,2.7302,2.7306,2.7288,2.7308,2.7307,2.7307,2.7307,2.7307,0,2.7743,2.772,2.7699,2.7665,2.7646,2.7624,2.7593,2.7578,2.7556,2.7526,2.7502,2.7469,2.744,2.74,2.7367,2.7357,2.7343,2.7349,2.7349,2.7344,2.7318,2.7322,2.7361,2.7361,2.7361,2.7361,2.7361,2.7361,2.7758,2.7742,2.7721,2.7692,2.7669,2.7645,2.7629,2.7606,2.7582,2.7549,2.7525,2.75,2.7465,2.743,2.7401,2.739,2.7379,2.7389,2.7374,2.7351,2.7346,2.7341,2.7344,2.7388,2.7388,2.7402,2.7402,2.7402]}]]